Weather History for KOFP - October, 2013

Change the Weather History Date:

Thursday, October 10, 2013

  Actual Average Record
Temperature  
Mean Temperature 55 °F -  
Max Temperature 57 °F 70 °F 89 °F (1997)
Min Temperature 53 °F 47 °F 32 °F (1979)
Degree Days  
Heating Degree Days 10    
Growing Degree Days 5 (Base 50)    
Moisture  
Dew Point 55 °F    
Average Humidity 96    
Maximum Humidity 100    
Minimum Humidity 93    
Precipitation  
Precipitation 1.03 in - - ()
Sea Level Pressure  
Sea Level Pressure 30.04 in    
Wind  
Wind Speed 7 mph (NNW)    
Max Wind Speed 12 mph    
Max Gust Speed 20 mph    
Visibility 4 miles    
Events Rain    
Averages and records for this station are not official NWS values.
T = Trace of Precipitation, MM = Missing Value Source: NWS Daily Summary

Daily Weather History Graph

Daily Weather History Graph

Search for Another Location

Airport or City:

Trip Planner

Search our weather history database for the weather conditions in past years. The results will help you decide how hot, cold, wet, or windy it might be!

Date:

Astronomy

Oct. 10, 2013 Rise Set
Actual Time 7:13 AM EDT 6:39 PM EDT
Civil Twilight 6:47 AM EDT 7:05 PM EDT
Nautical Twilight 6:16 AM EDT 7:35 PM EDT
Astronomical Twilight 5:46 AM EDT 8:06 PM EDT
Moon 12:59 PM EDT (10/10) 11:18 PM EDT (10/10)
Length of Visible Light 12h 18m
Length of Day
11h 25m
Waxing Crescent, 35% of the Moon is Illuminated
Oct 10
Waxing Crescent
Oct 11
First Quarter
Oct 18
Full
Oct 26
Last Quarter
Nov 3
New

Hourly Weather History & Observations

Time (EDT) Temp. Dew Point Humidity Pressure Visibility Wind Dir Wind Speed Gust Speed Precip Events Conditions
12:01 AM 53.6 °F 53.6 °F 100% 30.14 in 3.0 mi NNW 8.1 mph - 0.02 in Rain Light Rain
12:54 AM 54.0 °F 53.1 °F 97% 30.12 in 3.0 mi North 8.1 mph - 0.14 in Rain Rain
1:23 AM 53.6 °F 53.6 °F 100% 30.12 in 2.5 mi North 9.2 mph - 0.08 in Rain Rain
1:34 AM 53.6 °F 53.6 °F 100% 30.12 in 3.0 mi Variable 6.9 mph 19.6 mph 0.10 in Rain Rain
1:54 AM 55.0 °F 54.0 °F 96% 30.11 in 5.0 mi Variable 6.9 mph - 0.13 in Rain Light Rain
2:54 AM 55.0 °F 53.1 °F 93% 30.09 in 6.0 mi North 10.4 mph 18.4 mph 0.10 in Rain Rain
3:54 AM 55.0 °F 53.1 °F 93% 30.09 in 10.0 mi Variable 5.8 mph - 0.05 in   Overcast
4:54 AM 54.0 °F 54.0 °F 100% 30.08 in 3.0 mi North 8.1 mph - 0.12 in Rain Heavy Rain
5:54 AM 54.0 °F 53.1 °F 97% 30.08 in 4.0 mi Variable 4.6 mph - 0.23 in Rain Rain
6:54 AM 54.0 °F 53.1 °F 97% 30.07 in 4.0 mi Variable 5.8 mph 18.4 mph 0.08 in Rain Rain
7:54 AM 54.0 °F 53.1 °F 97% 30.07 in 7.0 mi North 6.9 mph - 0.05 in Rain Light Rain
8:54 AM 54.0 °F 53.1 °F 97% 30.07 in 3.0 mi North 9.2 mph - 0.01 in   Overcast
9:54 AM 54.0 °F 53.1 °F 97% 30.07 in 4.0 mi Variable 5.8 mph 16.1 mph 0.01 in   Overcast
10:54 AM 55.0 °F 54.0 °F 96% 30.06 in 2.5 mi Variable 6.9 mph - N/A   Overcast
11:07 AM 55.4 °F 53.6 °F 94% 30.06 in 1.8 mi North 9.2 mph 18.4 mph N/A   Overcast
11:22 AM 55.4 °F 53.6 °F 94% 30.05 in 2.0 mi North 11.5 mph 19.6 mph N/A   Overcast
11:40 AM 55.4 °F 55.4 °F 100% 30.05 in 3.0 mi North 8.1 mph 16.1 mph N/A   Overcast
11:54 AM 55.9 °F 55.0 °F 97% 30.05 in 4.0 mi Variable 5.8 mph - N/A   Overcast
12:54 PM 55.9 °F 55.0 °F 97% 30.04 in 5.0 mi Variable 5.8 mph - N/A   Overcast
1:54 PM 57.0 °F 55.9 °F 96% 30.01 in 3.0 mi NNW 8.1 mph - N/A   Overcast
2:54 PM 57.0 °F 55.0 °F 93% 30.00 in 5.0 mi Variable 5.8 mph - N/A   Overcast
3:54 PM 57.0 °F 55.9 °F 96% 30.00 in 6.0 mi NNW 5.8 mph - 0.01 in Rain Light Rain
4:54 PM 57.0 °F 55.9 °F 96% 29.98 in 5.0 mi Variable 4.6 mph 16.1 mph N/A   Overcast
5:37 PM 57.2 °F 55.4 °F 94% 29.98 in 2.0 mi NNW 9.2 mph 16.1 mph 0.01 in Rain Light Rain
5:54 PM 57.0 °F 55.9 °F 96% 29.99 in 2.5 mi NNW 6.9 mph - 0.02 in Rain Light Rain
6:01 PM 57.2 °F 55.4 °F 94% 29.98 in 5.0 mi Variable 5.8 mph - 0.00 in Rain Light Rain
6:54 PM 57.0 °F 55.0 °F 93% 29.99 in 5.0 mi North 8.1 mph - 0.06 in Rain Light Rain
7:54 PM 57.0 °F 55.9 °F 96% 29.99 in 4.0 mi Variable 4.6 mph 18.4 mph 0.01 in Rain Light Rain
8:54 PM 57.0 °F 55.9 °F 96% 29.98 in 7.0 mi North 8.1 mph - 0.01 in   Overcast
9:54 PM 57.0 °F 55.9 °F 96% 29.98 in 7.0 mi North 8.1 mph - N/A   Overcast
10:54 PM 57.0 °F 55.9 °F 96% 29.97 in 7.0 mi Variable 5.8 mph - N/A   Overcast
11:54 PM 57.0 °F 55.9 °F 96% 29.95 in 8.0 mi Variable 5.8 mph - N/A   Overcast